Погода в Рубцовске

Погода в Рубцовске : погода сейчас, прогноз погоды и архив. Всё, что Вы хотите узнать о погоде в Рубцовске!

Хотите узнать прогноз погоды в Рубцовске? Тогда Вам сюда: Погода в Рубцовске

Поиск расширенной информации на нашем сайте:

Полезная информация: ульяновская фабрика межкомнатных дверей

Другие новости

Новости СМИ2

Главная страница сайта

Новости сайта

03.07.2017

Напоминаем, что на нашем специализированном сайте Метеоцентр.Азия вы можете получить высокодетализированные автоматические прогнозы погоды по пунктам России, СНГ и мира в авиационном формате (включающие направление и скорость ветра, видимость, явления погоды, количество и форму облачности, нижнюю и верхнюю границу облачности).

Рекомендуем: нужен офис? купить офис в раойне 1-я Брестская улица интересные предложения

Погода в Рубцовске - сегодня

Время (UTC), дата Ветер
(°,м/с) 
Видим.   Явления Облачность Т
(°С)
Тd
(°С)
f(%) Тe
(°С)
Pmin
(гПа)
dP
(гПа)
Po
(мм)
O2
(г/м3)
Тmin Tmax R s Состояние
почвы
18 16.06.18 110 (В) 20000 м    6/0 средняя, верхняя 
[Ac und|Ci fib]
+16.1 +12.5 79 +22  1010.2  -0.7  738  279           
21 16.06.18 100 (В) 20000 м    3/0 верхняя 
[Ci fib]
+14.4 +11.7 84 +19  1008.9  -1.4  737  280           
00 17.06.18 020 (С) 20000 м    4/3 600 м средняя 
[Sc|Ac trans]
+15.5 +12.2 81 +21  1009  0.2  738  279  +11.9        сухая 
03 17.06.18 150 (ЮВ) 20000 м    ясно 
+24.3 +11.6 45 +28  1006.4  -1.9  736  270           
06 17.06.18 200 (Ю) 4{10}  20000 м    ясно 
+29.4 +11 32 +32  1004.6  -1.3  735  265           
09 17.06.18 160 (Ю) 20000 м    1/1 1000 м 
[Cu hum]
+31.8 +7.7 22 +32  1003.1  -1.3  734  264           
12 17.06.18 120 (ЮВ) 3{10}  20000 м    3/3 1000 м 
[Cu hum]
+30.7 +6.5 22 +31  1002.2  -1  733  265    +32       
15 17.06.18 100 (В) 20000 м    3/3 1000 м 
[Sc]
+23.6 +12.4 49 +29  1002.4  -0.3  733  270           
18 17.06.18 030 (СВ) 20000 м    ясно 
+18.1 +12.9 72 +25  1002.1  -0.7  733  274           
21 17.06.18 040 (СВ) 20000 м    4/0 верхняя 
[Ci fib]
+15.3 +12.6 84 +21  1000.9  -1.5  732  277           
00 18.06.18 040 (СВ) 20000 м    ясно 
+16.7 +13.1 79 +24  1000.4  -0.3  731  275  +14.6        сухая 
03 18.06.18 230 (ЮЗ) 20000 м    3/0 средняя 
[Ac trans]
+24.5 +15 55 +34  999.5  -0.2  731  267           
06 18.06.18 200 (Ю) 20000 м    1/0 средняя 
[Ac trans]
+29.3 +13.7 38 +36  998.4  -0.7  731  263           
09 18.06.18 130 (ЮВ) 20000 м    5/4 1000 м кучево-дожд., средняя 
[Cb cap|Ac trans]
+32.2 +10.1 26 +34  996.6  -1.6  729  261           
12 18.06.18 060 (СВ) 20000 м  {гроза, ливн. осадки}  9/8 600 м кучево-дожд., средняя 
[Cb cap|Ac trans]
+28.9 +12.9 37 +35  995.9  -0.9  729  263    +32.3  0.0     
18 18.06.18 220 (ЮЗ) 20000 м  {гроза, ливн. осадки}  1/0 средняя 
[Ac trans]
+15.8 +14.8 94 +26  1000.9  0.2  732  276           
21 18.06.18 040 (СВ) 4000 м  дымка  1/0 средняя 
[Ac trans]
+13 +12.4 96 +19  999.4  -1.7  730  278           
00 19.06.18 060 (СВ) 20000 м  {туман}  8/3 1000 м кучево-дожд., средняя, верхняя 
[Cb cap|Ac trans|Ci sp]
+15.4 +14.8 96 +25  997.3  -1.8  729  275  +11.8    0.4    влажная 
12 19.06.18 260 (З) 8-11{22}  20000 м    3/3 1000 м 
[Cu med, cong]
+21.7 +9.9 47 +23  1002.6  4.4  733  272    +26.4  0.0     
15 19.06.18 180 (Ю) 2{12}  20000 м    1/0 средняя 
[Ac lent]
+19.1 +11.7 62 +24  1005.2  2.3  735  275           
18 19.06.18 160 (Ю) 20000 м    ясно 
+17.2 +11.1 67 +21  1005.8  0.5  735  277           
21 19.06.18 220 (ЮЗ) 20000 м    ясно 
+14.5 +11.1 80 +18  1006.1  0.1  735  279           
00 20.06.18 170 (Ю) 20000 м    5/0 верхняя 
[Ci fib]
+16 +10.5 70 +18  1006.3  0.3  736  278  +14        сухая 
03 20.06.18 190 (Ю) 20000 м    10/0 верхняя 
[Ci sp]
+20.6 +12.4 59 +26  1006.5  0.5  736  273           
06 20.06.18 210 (ЮЗ) 20000 м    10/4 1000 м верхняя 
[Cu med, cong|Ci]
+24.9 +11.4 43 +28  1005.6  -0.5  736  270           
Время (UTC), дата Ветер
(°,м/с) 
Видим.   Явления Облачность Т
(°С)
Тd
(°С)
f(%) Тe
(°С)
Pmin
(гПа)
dP
(гПа)
Po
(мм)
O2
(г/м3)
Тmin Tmax R s Состояние
почвы

Для получения пояснительной информации подведите курсор к названию столбца.

ПОГОДА в Рубцовске - архив

Всё, что Вы хотите узнать о погоде в Рубцовске - удобно и подробно!

Выберите нужную дату (начиная с 1 января 2015* года) и нажмите кнопку "Найти".
Будут отображены архивные сводки погоды по пункту Рубцовск, начиная с указанной даты.


Отображать данные в формате CSV (для использования в таблицах Excel)


Внимание! Наш архив погоды предназначен исключительно для личного некоммерческого использования в познавательных целях. Если Вам необходимы официальные справки о состоянии погоды (для производственных, юридических, коммерческих и т.п. целей), обращайтесь в органы Росгидромета.

*Примечание: данная дата относится к архиву по метеостанциям СССР (Россия, СНГ, Балтия).
Архив по метеостанциям Зарубежной Европы и Азии (кроме Китая) хранится 10 дней, по другим регионам земного шара (Китай, Африка, Америка, Австралия, Океания) - 1 день.

Рубцовск - район местоположения метеостанции


Название, широта, долгота, высота метеостанции:
Рубцовск 51.5°ш. 81.2°д. 219 м над ур. моря [Российская Федерация]

Дополнительная информация

В oтличие oт бoльшинства пoгoдных сайтoв мы публикуем пoдрoбную метеoинфoрмацию в детальнoм прoфессиoнальнoм фoрмате.

Характеристики температуры и влажнoсти вoздуха измеряются на высoте 2 м в тени вдали oт зданий и деревьев.
Скoрoсть ветра измеряется на высoте 10 м (на урoвне рoста челoвека скoрoсть ветра ниже в 1.5-2 раза). Если метеoстанция нахoдится в гoрoде или в лесу, тo скoрoсть ветра занижена на 2-4 м/с пo сравнению с oткрытым местoм. Скoрoсть ветра над акватoриями крупных рек и oзёр, а также на вершинах хoлмoв на 2-5 м/с выше, чем в oбычных услoвиях.
Атмoсфернoе давление в разных тoчках местнoсти мoжет значительнo oтличаться oт давления на метеoстанции, в зависимoсти oт услoвий рельефа (при пoдъёме на 10 м давление пoнижается примернo на 1 мм рт.ст.).